Weather History for Ionia, MI

Change the Weather History Date:

Thursday, December 22, 2011

  Actual Average (KGRR) Record (KGRR)
Temperature  
Mean Temperature 35 °F 27 °F  
Max Temperature 39 °F 33 °F 57 °F (1941)
Min Temperature 31 °F 22 °F -11 °F (1989)
Degree Days  
Heating Degree Days 30 38  
Month to date heating degree days 762  
Since 1 July heating degree days 2100  
Cooling Degree Days 0 0  
Month to date cooling degree days 0  
Year to date cooling degree days 699  
Moisture  
Dew Point 34 °F    
Average Humidity 89    
Maximum Humidity 97    
Minimum Humidity 80    
Precipitation  
Precipitation 0.00 in 0.08 in 1.07 in (1920)
Month to date precipitation 1.82  
Year to date precipitation 37.59  
Snow  
Snow 0.00 in 0.80 in 8.50 in (1951)
Month to date snowfall 14.8  
Since 1 July snowfall 22.1  
Snow Depth -    
Sea Level Pressure  
Sea Level Pressure 30.02 in    
Wind  
Wind Speed 5 mph (West)    
Max Wind Speed 16 mph    
Max Gust Speed 23 mph    
Visibility 7 miles    
Events Rain , Snow    
T = Trace of Precipitation, MM = Missing Value Source: NWS Daily Summary

Daily Weather History Graph

Daily Weather History Graph

Search for Another Location

Airport:

Trip Planner

Search our weather history database for the weather conditions in past years. The results will help you decide how hot, cold, wet, or windy it might be!

Date:

Astronomy

Dec. 22, 2011 Rise Set
Actual Time 8:08 AM EST 5:09 PM EST
Civil Twilight 7:36 AM EST 5:41 PM EST
Nautical Twilight 7:00 AM EST 6:17 PM EST
Astronomical Twilight 6:25 AM EST 6:51 PM EST
Moon 5:50 AM EST (12/22) 3:18 PM EST (12/22)
Length of Visible Light 10h 05m
Length of Day
9h 00m
Waning Crescent, 6% of the Moon is Illuminated
Dec 22
Waning Crescent
Dec 24
New
Jan 1
First Quarter
Jan 9
Full
Jan 16
Last Quarter

Hourly Weather History & Observations

Time (EST) Temp. Windchill Dew Point Humidity Pressure Visibility Wind Dir Wind Speed Gust Speed Precip Events Conditions
12:13 AM 37.9 °F 34.4 °F 36.7 °F 95% 29.89 in 3.0 mi SW 4.6 mph - N/A   Overcast
12:33 AM 37.2 °F 33.6 °F 36.3 °F 97% 29.90 in 3.0 mi SW 4.6 mph - N/A   Mostly Cloudy
12:53 AM 37.4 °F 32.8 °F 36.5 °F 97% 29.91 in 3.0 mi SW 5.8 mph - N/A   Mostly Cloudy
1:13 AM 37.9 °F 32.7 °F 36.9 °F 96% 29.92 in 5.0 mi SW 6.9 mph - N/A   Mostly Cloudy
1:33 AM 38.1 °F 32.9 °F 36.9 °F 95% 29.92 in 5.0 mi SW 6.9 mph - N/A   Mostly Cloudy
1:53 AM 38.5 °F 33.4 °F 37.4 °F 96% 29.93 in 4.0 mi WSW 6.9 mph - N/A   Overcast
2:13 AM 39.2 °F 33.6 °F 37.6 °F 94% 29.93 in 5.0 mi West 8.1 mph - N/A   Overcast
2:33 AM 39.4 °F 33.8 °F 37.6 °F 93% 29.93 in 7.0 mi WSW 8.1 mph - N/A   Overcast
3:13 AM 39.2 °F 32.5 °F 37.2 °F 93% 29.96 in 7.0 mi WSW 10.4 mph - N/A   Overcast
3:33 AM 38.5 °F 33.4 °F 36.3 °F 92% 29.97 in 7.0 mi WSW 6.9 mph - N/A   Overcast
3:53 AM 36.7 °F 32.0 °F 34.7 °F 93% 29.97 in 7.0 mi SW 5.8 mph - N/A   Overcast
4:13 AM 35.6 °F 30.7 °F 34.3 °F 95% 29.97 in 5.0 mi SW 5.8 mph - N/A   Scattered Clouds
4:33 AM 34.9 °F 29.0 °F 33.6 °F 95% 29.97 in 4.0 mi SW 6.9 mph - N/A   Scattered Clouds
4:53 AM 36.3 °F 32.5 °F 35.1 °F 95% 29.97 in 5.0 mi West 4.6 mph - N/A   Mostly Cloudy
5:13 AM 36.5 °F 32.7 °F 34.5 °F 93% 29.96 in 7.0 mi WSW 4.6 mph - N/A   Overcast
5:33 AM 36.0 °F 31.1 °F 34.2 °F 93% 29.98 in 7.0 mi SW 5.8 mph - N/A   Overcast
5:53 AM 36.1 °F 31.4 °F 33.8 °F 91% 30.00 in 7.0 mi SW 5.8 mph - N/A   Overcast
6:33 AM 37.4 °F 32.1 °F 34.7 °F 90% 30.02 in 7.0 mi WSW 6.9 mph - N/A   Overcast
6:53 AM 37.6 °F 31.0 °F 33.4 °F 85% 30.02 in 10.0 mi SW 9.2 mph - N/A   Overcast
7:13 AM 37.6 °F 31.6 °F 32.9 °F 83% 30.03 in 10.0 mi WSW 8.1 mph - N/A   Overcast
7:33 AM 37.6 °F 33.1 °F 32.9 °F 83% 30.03 in 10.0 mi WSW 5.8 mph - N/A   Overcast
7:53 AM 37.4 °F 33.8 °F 33.3 °F 85% 30.03 in 10.0 mi WSW 4.6 mph - N/A   Overcast
8:13 AM 36.9 °F 32.2 °F 32.2 °F 83% 30.03 in 10.0 mi SW 5.8 mph - N/A   Overcast
8:33 AM 37.0 °F - 33.1 °F 86% 30.01 in 10.0 mi Calm Calm - N/A   Overcast
8:53 AM 36.9 °F - 33.8 °F 89% 30.02 in 7.0 mi Calm Calm - N/A   Overcast
9:13 AM 37.9 °F - 34.7 °F 88% 30.02 in 7.0 mi Calm Calm - N/A   Overcast
9:33 AM 38.5 °F - 33.4 °F 82% 30.02 in 7.0 mi Calm Calm - N/A   Overcast
9:53 AM 38.8 °F 36.5 °F 33.3 °F 80% 30.04 in 10.0 mi SSW 3.5 mph - N/A   Overcast
10:33 AM 38.5 °F - 33.8 °F 83% 30.06 in 7.0 mi Calm Calm - N/A   Overcast
10:53 AM 38.5 °F 36.1 °F 34.5 °F 86% 30.06 in 10.0 mi SSW 3.5 mph - N/A   Overcast
11:13 AM 38.5 °F 31.6 °F 35.1 °F 87% 30.06 in 7.0 mi South 10.4 mph - N/A   Overcast
11:33 AM 38.7 °F 35.2 °F 35.6 °F 89% 30.07 in 7.0 mi SSW 4.6 mph - N/A   Overcast
11:53 AM 38.8 °F 36.5 °F 35.4 °F 88% 30.05 in 7.0 mi SW 3.5 mph - N/A   Overcast
12:13 PM 39.2 °F 37.0 °F 35.8 °F 88% 30.06 in 7.0 mi SSW 3.5 mph - N/A   Overcast
12:33 PM 39.2 °F - 35.8 °F 88% 30.06 in 7.0 mi Calm Calm - N/A   Overcast
12:53 PM 39.4 °F 37.2 °F 35.6 °F 86% 30.05 in 7.0 mi West 3.5 mph - N/A   Overcast
1:13 PM 39.2 °F 37.0 °F 35.1 °F 85% 30.05 in 5.0 mi NW 3.5 mph - N/A   Overcast
1:33 PM 38.5 °F 36.1 °F 34.7 °F 86% 30.04 in 5.0 mi NW 3.5 mph - N/A   Overcast
1:53 PM 38.3 °F - 34.9 °F 87% 30.03 in 5.0 mi Calm Calm - N/A   Overcast
2:13 PM 38.5 °F - 34.9 °F 87% 30.03 in 5.0 mi Calm Calm - N/A   Overcast
2:33 PM 38.8 °F - 35.1 °F 86% 30.03 in 5.0 mi Calm Calm - N/A   Overcast
2:53 PM 38.5 °F - 35.1 °F 87% 30.03 in 5.0 mi Calm Calm - N/A   Overcast
3:13 PM 38.7 °F - 34.7 °F 86% 30.04 in 5.0 mi Calm Calm - N/A   Overcast
3:33 PM 38.5 °F - 34.9 °F 87% 30.04 in 5.0 mi Calm Calm - N/A   Overcast
3:53 PM 37.9 °F 35.5 °F 34.0 °F 86% 30.06 in 7.0 mi North 3.5 mph - N/A   Overcast
4:13 PM 37.6 °F 33.1 °F 34.0 °F 87% 30.06 in 7.0 mi North 5.8 mph - N/A   Overcast
4:33 PM 37.4 °F 32.1 °F 33.8 °F 87% 30.06 in 7.0 mi North 6.9 mph - N/A   Overcast
4:53 PM 36.7 °F 30.5 °F 32.7 °F 86% 30.05 in 7.0 mi North 8.1 mph - N/A   Overcast
5:13 PM 36.5 °F 31.0 °F 32.5 °F 86% 30.04 in 7.0 mi North 6.9 mph - N/A   Overcast
5:33 PM 36.5 °F 30.3 °F 32.5 °F 86% 30.05 in 10.0 mi North 8.1 mph - N/A   Overcast
5:53 PM 36.0 °F 29.6 °F 32.4 °F 87% 30.05 in 10.0 mi North 8.1 mph - N/A   Overcast
6:13 PM 36.0 °F 31.1 °F 32.5 °F 87% 30.06 in 10.0 mi North 5.8 mph - N/A   Overcast
6:33 PM 36.0 °F 30.3 °F 32.4 °F 87% 30.07 in 7.0 mi North 6.9 mph - N/A Rain Rain
6:53 PM 35.8 °F 30.9 °F 32.4 °F 87% 30.08 in 10.0 mi North 5.8 mph - N/A   Overcast
7:13 PM 36.0 °F 31.1 °F 32.4 °F 87% 30.08 in 10.0 mi North 5.8 mph - N/A   Overcast
7:33 PM 36.0 °F 28.5 °F 32.5 °F 87% 30.09 in 10.0 mi North 10.4 mph - N/A   Overcast
7:53 PM 34.2 °F 24.0 °F 32.0 °F 92% 30.09 in 10.0 mi North 16.1 mph - N/A Snow Light Snow
8:13 PM 33.3 °F 24.6 °F 30.6 °F 90% 30.10 in 10.0 mi North 11.5 mph - N/A   Overcast
8:33 PM 32.5 °F 21.9 °F 29.5 °F 88% 30.10 in 10.0 mi North 16.1 mph 23.0 mph N/A Snow Light Snow
9:13 PM 31.8 °F 24.6 °F 29.8 °F 92% 30.11 in 5.0 mi North 8.1 mph - N/A Snow Light Snow
9:33 PM 31.8 °F 25.4 °F 30.0 °F 93% 30.11 in 5.0 mi North 6.9 mph - N/A Snow Light Snow
9:53 PM 31.8 °F 24.6 °F 29.5 °F 91% 30.13 in 10.0 mi North 8.1 mph - N/A   Overcast
10:13 PM 32.0 °F 24.8 °F 28.4 °F 87% 30.13 in 10.0 mi North 8.1 mph - N/A   Overcast
10:33 PM 31.8 °F 24.6 °F 27.9 °F 85% 30.14 in 10.0 mi North 8.1 mph - N/A   Overcast
10:53 PM 31.8 °F 24.6 °F 27.1 °F 83% 30.14 in 10.0 mi North 8.1 mph - N/A   Overcast
11:13 PM 31.6 °F 23.7 °F 26.6 °F 82% 30.15 in 10.0 mi North 9.2 mph - N/A   Overcast
11:33 PM 31.6 °F 24.4 °F 26.6 °F 82% 30.15 in 10.0 mi North 8.1 mph - N/A   Overcast
11:53 PM 31.1 °F 23.7 °F 25.7 °F 80% 30.16 in 10.0 mi North 8.1 mph - N/A   Overcast